Regional Weather Roundup
Issued by NWS

Home | Current Version | Previous Version | Graphics & Text | Print | Product List | Glossary On
Versions: 1 2 3 4 5 6 7 8 9 10 11 12 13 14 15 16 17 18 19 20 21 22 23 24 25 26 27 28 29 30 31 32 33 34 35 36 37 38 39 40 41 42 43 44 45 46 47 48 49 50
000
ASUS43 KFSD 231510
RWRSD

WEATHER ROUNDUP FOR SOUTH DAKOTA
NATIONAL WEATHER SERVICE SIOUX FALLS SD
1000 AM CDT MON OCT 23 2017

NOTE: "FAIR" INDICATES FEW OR NO CLOUDS BELOW 12,000 FEET WITH NO
SIGNIFICANT WEATHER AND/OR OBSTRUCTIONS TO VISIBILITY.


SDZ001>005-009-010-012>017-231600-
NORTHWEST AND NORTH CENTRAL SOUTH DAKOTA

CITY           SKY/WX    TMP DP  RH WIND       PRES   REMARKS
BUFFALO          N/A     46  28  49 NW25G36   30.16R
MOBRIDGE       SUNNY     50  35  56 NW31G39   30.05R
$$

SDZ012>016-024>037-041>051-057-063-072>074-231600-
SOUTHWEST AND SOUTH CENTRAL SOUTH DAKOTA

CITY           SKY/WX    TMP DP  RH WIND       PRES   REMARKS
RAPID CTY ARPT SUNNY     51  22  31 NW36G46   30.25R
PIERRE         SUNNY     52  35  52 NW28G37   30.09R
CUSTER         SUNNY     40  19  43 NW8G23    30.28R
ELLSWORTH AFB  SUNNY     51  22  32 NW32G44   30.24
PHILIP         SUNNY     52  28  39 NW24G35   30.18R
PINE RIDGE     SUNNY     45  27  49 W6        30.30R
SPEARFISH      FAIR      46  21  36 W18G28    30.30R
WINNER         FAIR      53  33  46 NW21G30   30.14R
$$

SDZ004>011-016>023-039-040-231600-
NORTHEAST SOUTH DAKOTA

CITY           SKY/WX    TMP DP  RH WIND       PRES   REMARKS
ABERDEEN       PTSUNNY   49  38  65 NW24      29.99R
WATERTOWN      MOSUNNY   49  39  68 NW24G37   29.90S
BROOKINGS      SUNNY     51  38  60 NW26G33   29.92F
SISSETON         N/A     49  37  63 NW31G41   29.88R
$$

SDZ017-020-022-023-036>040-048>070-231600-
SOUTHEAST SOUTH DAKOTA

CITY           SKY/WX    TMP DP  RH WIND       PRES   REMARKS
SIOUX FALLS    MOSUNNY   54  40  59 NW20G30   29.96R
HURON          SUNNY     51  38  60 NW25G36   30.00R
CHAMBERLAIN    SUNNY     54  38  55 W23G29    30.09R
MITCHELL       MOSUNNY   53  39  59 NW24G30   30.04R
YANKTON        SUNNY     54  38  54 NW25G33   30.02R
$$

ABBREVIATIONS USED IN REMARKS
   TC - TEMPERATURE IN CELSIUS
  WCI - WIND CHILL INDEX
   HX - HEAT INDEX
  VSB - VISIBILITY





USA.gov is the U.S. government's official web portal to all federal, state and local government web resources and services.